Location: Sigmaringen
(48.0900°N, 9.2120°E)
Time: 04:56:44
(UTC+01:00)

N. Korean satellite - Visible Passes

Search period start: 18 January 2018 00:00
Search period end: 28 January 2018 00:00
Orbit: 459 x 515 km, 97.2° (Epoch: 17 January)

Date Brightness Start Highest point End Pass type
(mag) Time Alt. Az. Time Alt. Az. Time Alt. Az.
18 Jan 6.4 07:17:06 10° NNE 07:20:34 88° WNW 07:24:00 10° SSW visible
18 Jan 6.6 17:56:23 10° SSE 17:59:57 58° ENE 18:03:28 10° N visible
18 Jan 10.1 19:32:34 10° WSW 19:33:48 11° W 19:35:03 10° WNW visible
19 Jan 7.7 06:53:32 10° NNE 06:56:53 45° E 07:00:11 10° S visible
19 Jan 7.3 17:33:11 10° SE 17:36:23 31° ENE 17:39:33 10° N visible
19 Jan 9.4 19:07:11 10° SW 19:09:56 20° W 19:12:41 10° NW visible
20 Jan 9.1 06:30:14 10° NE 06:33:06 24° E 06:35:56 10° SSE visible
20 Jan 8.2 18:42:47 10° SSW 18:46:09 37° W 18:49:29 10° NNW visible
21 Jan 9.9 06:07:31 10° ENE 06:09:14 13° E 06:10:56 10° ESE visible
21 Jan 6.8 18:18:51 10° S 18:22:26 73° WSW 18:25:59 10° NNW visible
22 Jan 6.5 07:15:54 10° NNE 07:19:23 89° E 07:22:51 10° SSW visible
22 Jan 6.6 17:55:17 10° SSE 17:58:47 56° ENE 18:02:16 10° N visible
22 Jan 10.1 19:31:24 10° WSW 19:32:38 11° W 19:33:53 10° WNW visible
23 Jan 7.8 06:52:20 10° NNE 06:55:41 44° E 06:59:00 10° S visible
23 Jan 9.4 19:06:02 10° SW 19:08:45 21° W 19:11:29 10° NW visible
24 Jan 9.2 06:29:04 10° NE 06:31:53 23° E 06:34:43 10° SSE visible
24 Jan 8.1 18:41:38 10° SSW 18:44:58 37° W 18:48:17 10° NNW visible
25 Jan 10.0 06:06:23 10° ENE 06:08:02 13° E 06:09:41 10° ESE visible
25 Jan 6.7 18:17:42 10° S 18:21:14 75° WSW 18:24:45 10° NNW visible
26 Jan 6.5 07:14:41 10° NNE 07:18:10 87° ESE 07:21:39 10° SSW visible
26 Jan 6.6 17:54:07 10° SSE 17:57:35 54° ENE 18:01:01 10° N visible
26 Jan 10.1 19:30:10 10° WSW 19:31:26 12° W 19:32:41 10° WNW visible
27 Jan 7.9 06:51:08 10° NNE 06:54:27 43° E 06:57:47 10° S visible
27 Jan 9.3 19:04:49 10° SW 19:07:32 21° W 19:10:15 10° NW visible
